| time (UTC) | temp C | wind direction | speed KPH | gust KPH | rain 1hr cm | rain 24hr cm | rain mn cm | humidity % | barometer mb |
| 20260510204514 | 8 | 18 | 0.0 | 9.7 | 0.00 | 0.00 | 0.00 | 54 | 1021.8 |
| 20260510203013 | 8 | 20 | 1.6 | 6.4 | 0.00 | 0.00 | 0.00 | 53 | 1021.8 |
| 20260510201512 | 8 | 25 | 6.4 | 11.3 | 0.00 | 0.00 | 0.00 | 54 | 1021.7 |
| 20260510200013 | 9 | 29 | 1.6 | 11.3 | 0.00 | 0.00 | 0.00 | 52 | 1021.8 |
| 20260510194519 | 9 | 282 | 1.6 | 11.3 | 0.00 | 0.00 | 0.00 | 56 | 1021.7 |
| 20260510193011 | 9 | 360 | 4.8 | 11.3 | 0.00 | 0.00 | 0.00 | 56 | 1021.8 |
| 20260510191509 | 9 | 298 | 3.2 | 11.3 | 0.00 | 0.00 | 0.00 | 61 | 1021.7 |
| 20260510190006 | 8 | 5 | 3.2 | 14.5 | 0.00 | 0.00 | 0.00 | 57 | 1021.7 |
| 20260510184503 | 8 | 319 | 3.2 | 9.7 | 0.00 | 0.00 | 0.00 | 55 | 1021.4 |
| 20260510183101 | 8 | 252 | 3.2 | 12.9 | 0.00 | 0.00 | 0.00 | 59 | 1021.1 |
| 20260510181558 | 8 | 345 | 0.0 | 8.0 | 0.00 | 0.00 | 0.00 | 61 | 1021.1 |
| 20260510180107 | 7 | 337 | 4.8 | 8.0 | 0.00 | 0.00 | 0.00 | 61 | 1021.1 |
| 20260510174605 | 7 | 86 | 3.2 | 9.7 | 0.00 | 0.00 | 0.00 | 59 | 1021.1 |
| 20260510173055 | 7 | 37 | 0.0 | 6.4 | 0.00 | 0.00 | 0.00 | 60 | 1020.9 |
| 20260510171602 | 7 | 5 | 0.0 | 6.4 | 0.00 | 0.00 | 0.00 | 53 | 1020.6 |
| 20260510170052 | 8 | 292 | 1.6 | 8.0 | 0.00 | 0.00 | 0.00 | 56 | 1020.6 |
| 20260510164605 | 8 | 321 | 1.6 | 9.7 | 0.00 | 0.00 | 0.00 | 59 | 1020.6 |
| 20260510163120 | 7 | 19 | 1.6 | 12.9 | 0.00 | 0.00 | 0.00 | 62 | 1020.5 |
| 20260510161547 | 8 | 338 | 3.2 | 9.7 | 0.00 | 0.00 | 0.00 | 63 | 1020.3 |
| 20260510160048 | 7 | 350 | 3.2 | 11.3 | 0.00 | 0.00 | 0.00 | 66 | 1020.0 |
| 20260510154544 | 8 | 287 | 1.6 | 12.9 | 0.00 | 0.00 | 0.00 | 62 | 1019.8 |
| 20260510153056 | 7 | 324 | 3.2 | 9.7 | 0.00 | 0.00 | 0.00 | 64 | 1019.6 |
| 20260510151540 | 7 | 293 | 1.6 | 16.1 | 0.00 | 0.00 | 0.00 | 68 | 1019.6 |
| 20260510150042 | 7 | 317 | 3.2 | 12.9 | 0.00 | 0.00 | 0.00 | 66 | 1019.4 |
| 20260510144543 | 7 | 321 | 1.6 | 8.0 | 0.00 | 0.00 | 0.00 | 66 | 1019.2 |
| 20260510143038 | 7 | 5 | 1.6 | 8.0 | 0.00 | 0.00 | 0.00 | 67 | 1019.1 |
| 20260510141635 | 7 | 323 | 3.2 | 12.9 | 0.00 | 0.00 | 0.00 | 67 | 1019.0 |
| 20260510140034 | 7 | 319 | 4.8 | 11.3 | 0.00 | 0.00 | 0.00 | 64 | 1018.9 |
| 20260510134531 | 7 | 39 | 1.6 | 11.3 | 0.00 | 0.00 | 0.00 | 65 | 1018.7 |
| 20260510133027 | 7 | 325 | 3.2 | 17.7 | 0.00 | 0.00 | 0.00 | 68 | 1018.6 |
| 20260510131528 | 6 | 306 | 1.6 | 12.9 | 0.00 | 0.00 | 0.00 | 70 | 1018.5 |
| 20260510130022 | 6 | 270 | 4.8 | 11.3 | 0.00 | 0.00 | 0.00 | 70 | 1018.4 |
| 20260510124527 | 5 | 309 | 3.2 | 12.9 | 0.00 | 0.00 | 0.00 | 71 | 1018.2 |
| 20260510123016 | 5 | 333 | 1.6 | 6.4 | 0.00 | 0.00 | 0.00 | 72 | 1018.0 |
| 20260510121516 | 5 | 348 | 1.6 | 6.4 | 0.00 | 0.00 | 0.00 | 75 | 1017.6 |
| 20260510120010 | 3 | 355 | 0.0 | 4.8 | 0.00 | 0.00 | 0.00 | 80 | 1017.5 |
| 20260510114509 | 2 | 360 | 0.0 | 0.0 | 0.00 | 0.00 | 0.00 | 82 | 1017.2 |
| 20260510113005 | 2 | 360 | 0.0 | 1.6 | 0.00 | 0.00 | 0.00 | 82 | 1017.1 |
| 20260510111506 | 1 | 360 | 0.0 | 0.0 | 0.00 | 0.00 | 0.00 | 81 | 1016.9 |
| 20260510110002 | 1 | 360 | 0.0 | 0.0 | 0.00 | 0.00 | 0.00 | 79 | 1016.7 |
| 20260510104601 | 1 | 360 | 0.0 | 0.0 | 0.00 | 0.00 | 0.00 | 78 | 1016.4 |
| 20260510103056 | 1 | 360 | 0.0 | 1.6 | 0.00 | 0.00 | 0.00 | 77 | 1016.2 |
| 20260510101555 | 2 | 360 | 0.0 | 0.0 | 0.00 | 0.00 | 0.00 | 75 | 1015.9 |
| 20260510100108 | 2 | 360 | 0.0 | 0.0 | 0.00 | 0.00 | 0.00 | 74 | 1015.6 |
| 20260510094559 | 2 | 360 | 0.0 | 0.0 | 0.00 | 0.00 | 0.00 | 73 | 1015.5 |
| 20260510093044 | 2 | 360 | 0.0 | 1.6 | 0.00 | 0.00 | 0.00 | 73 | 1015.3 |
| 20260510091542 | 3 | 360 | 0.0 | 0.0 | 0.00 | 0.00 | 0.00 | 72 | 1015.1 |
| 20260510090047 | 3 | 360 | 0.0 | 0.0 | 0.00 | 0.00 | 0.00 | 70 | 1015.0 |
| 20260510084551 | 3 | 360 | 0.0 | 0.0 | 0.00 | 0.00 | 0.00 | 70 | 1014.7 |
| 20260510083036 | 3 | 360 | 0.0 | 1.6 | 0.00 | 0.00 | 0.00 | 70 | 1014.7 |
| 20260510081547 | 3 | 360 | 0.0 | 0.0 | 0.00 | 0.00 | 0.00 | 71 | 1014.6 |
| 20260510080038 | 3 | 360 | 0.0 | 0.0 | 0.00 | 0.00 | 0.00 | 70 | 1014.5 |
| 20260510074530 | 3 | 360 | 0.0 | 0.0 | 0.00 | 0.00 | 0.00 | 69 | 1014.3 |
| 20260510073028 | 3 | 360 | 0.0 | 0.0 | 0.00 | 0.00 | 0.00 | 67 | 1014.3 |
| 20260510071529 | 4 | 360 | 0.0 | 0.0 | 0.00 | 0.00 | 0.00 | 67 | 1014.3 |
| 20260510070035 | 4 | 360 | 0.0 | 0.0 | 0.00 | 0.00 | 0.00 | 66 | 1014.1 |
| 20260510064525 | 4 | 360 | 0.0 | 0.0 | 0.00 | 0.00 | 0.00 | 64 | 1014.0 |
| 20260510063022 | 4 | 360 | 0.0 | 3.2 | 0.00 | 0.00 | 0.00 | 63 | 1014.0 |
| 20260510061521 | 4 | 360 | 0.0 | 1.6 | 0.00 | 0.00 | 0.00 | 61 | 1013.8 |
| 20260510060020 | 4 | 360 | 0.0 | 1.6 | 0.00 | 0.00 | 0.00 | 61 | 1013.9 |
| 20260510054518 | 4 | 360 | 0.0 | 1.6 | 0.00 | 0.00 | 0.00 | 62 | 1013.8 |
| 20260510053016 | 4 | 360 | 0.0 | 0.0 | 0.00 | 0.00 | 0.00 | 62 | 1013.6 |
| 20260510051515 | 4 | 360 | 0.0 | 1.6 | 0.00 | 0.00 | 0.00 | 62 | 1013.7 |
| 20260510050013 | 4 | 360 | 0.0 | 0.0 | 0.00 | 0.00 | 0.00 | 62 | 1013.5 |
| 20260510044525 | 4 | 360 | 0.0 | 0.0 | 0.00 | 0.00 | 0.00 | 61 | 1013.4 |
| 20260510043010 | 4 | 360 | 0.0 | 0.0 | 0.00 | 0.00 | 0.00 | 60 | 1013.5 |
| 20260510041507 | 5 | 360 | 0.0 | 0.0 | 0.00 | 0.00 | 0.00 | 59 | 1013.4 |
| 20260510040004 | 5 | 360 | 0.0 | 0.0 | 0.00 | 0.00 | 0.00 | 59 | 1013.3 |
| 20260510034501 | 5 | 360 | 0.0 | 0.0 | 0.00 | 0.00 | 0.00 | 57 | 1013.2 |
| 20260510033137 | 6 | 360 | 0.0 | 0.0 | 0.00 | 0.00 | 0.00 | 58 | 1013.0 |
| 20260510031613 | 6 | 360 | 0.0 | 1.6 | 0.00 | 0.00 | 0.00 | 57 | 1012.9 |
| 20260510030058 | 6 | 360 | 0.0 | 1.6 | 0.00 | 0.00 | 0.00 | 56 | 1012.8 |
| 20260510024551 | 7 | 360 | 0.0 | 1.6 | 0.00 | 0.00 | 0.00 | 55 | 1012.7 |
| 20260510023047 | 7 | 360 | 0.0 | 1.6 | 0.00 | 0.00 | 0.00 | 54 | 1012.5 |
| 20260510021544 | 7 | 360 | 0.0 | 1.6 | 0.00 | 0.00 | 0.00 | 54 | 1012.3 |
| 20260510020046 | 8 | 360 | 0.0 | 1.6 | 0.00 | 0.00 | 0.00 | 54 | 1012.0 |
| 20260510014545 | 8 | 360 | 0.0 | 4.8 | 0.00 | 0.00 | 0.00 | 53 | 1011.9 |
| 20260510013038 | 8 | 5 | 0.0 | 4.8 | 0.00 | 0.00 | 0.00 | 53 | 1011.6 |
| 20260510011541 | 9 | 340 | 0.0 | 6.4 | 0.00 | 0.00 | 0.00 | 52 | 1011.3 |
| 20260510010033 | 9 | 336 | 1.6 | 6.4 | 0.00 | 0.00 | 0.00 | 50 | 1011.1 |
| 20260510004532 | 10 | 337 | 0.0 | 9.7 | 0.00 | 0.00 | 0.00 | 47 | 1010.8 |
| 20260510003031 | 10 | 61 | 0.0 | 4.8 | 0.00 | 0.00 | 0.00 | 46 | 1010.8 |
| 20260510001527 | 9 | 61 | 0.0 | 4.8 | 0.00 | 0.00 | 0.00 | 46 | 1010.6 |
| 20260510000051 | 10 | 61 | 0.0 | 3.2 | 0.00 | 0.00 | 0.00 | 47 | 1010.5 |
| 20260509234539 | 10 | 61 | 1.6 | 4.8 | 0.00 | 0.00 | 0.00 | 45 | 1010.3 |
| 20260509233024 | 10 | 61 | 0.0 | 6.4 | 0.00 | 0.00 | 0.00 | 46 | 1010.0 |
| 20260509231521 | 10 | 59 | 1.6 | 6.4 | 0.00 | 0.00 | 0.00 | 45 | 1009.9 |
| 20260509230019 | 10 | 24 | 1.6 | 9.7 | 0.00 | 0.00 | 0.00 | 45 | 1009.6 |
| 20260509224519 | 10 | 69 | 0.0 | 8.0 | 0.00 | 0.00 | 0.00 | 45 | 1009.5 |
| 20260509223017 | 10 | 55 | 3.2 | 8.0 | 0.00 | 0.00 | 0.00 | 45 | 1009.5 |
| 20260509221515 | 11 | 61 | 1.6 | 6.4 | 0.00 | 0.00 | 0.00 | 44 | 1009.4 |
| 20260509220013 | 11 | 17 | 1.6 | 8.0 | 0.00 | 0.00 | 0.00 | 43 | 1009.3 |
| 20260509214520 | 11 | 347 | 4.8 | 12.9 | 0.00 | 0.00 | 0.00 | 43 | 1009.3 |
| 20260509213012 | 11 | 18 | 3.2 | 8.0 | 0.00 | 0.00 | 0.00 | 45 | 1009.3 |
| 20260509211516 | 11 | 18 | 3.2 | 12.9 | 0.00 | 0.00 | 0.00 | 42 | 1009.2 |
| 20260509210011 | 11 | 316 | 4.8 | 11.3 | 0.00 | 0.00 | 0.00 | 44 | 1009.1 |